Regional Weather Roundup
Issued by NWS Midland/Odessa, TX

Skip options and go directly to product.
Home | Oldest Version | Previous Version | Current Version | All | Text Only | Save Text | Print | Product List | Glossary Off

Skip product version selection by date and time.   

176
ASUS44 KMAF 072201
RWRMAF
MIDLAND AREA WEATHER ROUNDUP
NATIONAL WEATHER SERVICE MIDLAND TX
400 PM CST WED DEC 07 2016

...IN SOUTHWEST TEXAS AND SOUTHEAST NEW MEXICO...

CITY           SKY/WX    TMP DP  RH WIND       PRES   REMARKS
ALPINE         CLOUDY    65  26  23 W10       30.06R
ANDREWS        FAIR      42  40  89 E7        30.04R WCI  38
ARTESIA        CLOUDY    46  37  71 CALM      30.00R
BIG SPRING     CLOUDY    45  42  88 NE10      30.08R WCI  39
CARLSBAD       CLOUDY    48  39  71 N8        29.98R
DRYDEN           N/A     56  46  69 E8        29.97R
FORT STOCKTON  CLOUDY    54  46  74 SE3       29.99R
GUAD PASS      CLOUDY    51  32  48 W25G33    30.01R
HOBBS          SUNNY     46  39  76 E7        30.02R
MARFA          CLOUDY    59  25  27 W13       30.04R
MIDLAND AIRPK  CLOUDY    46  41  85 NE10      30.04R
MIDLAND INTL   CLOUDY    47  40  76 NE10      30.03R
ODESSA         CLOUDY    45  39  79 NE10      30.03R WCI  40
PECOS          CLOUDY    46  41  82 E3        29.99R
PRESIDIO       FAIR      73  32  22 CALM      29.95R
SEMINOLE       CLOUDY    44  38  78 NE9       30.05R WCI  39
SNYDER         CLOUDY    40  37  88 NE8       30.09R WCI  34
WINK           CLOUDY    50  41  71 NE5       29.98R
$$
...OTHER STATIONS IN TEXAS...

CITY           SKY/WX    TMP DP  RH WIND       PRES   REMARKS
ABILENE        CLOUDY    43  41  93 N9        30.10R FOG     WCI  38
AMARILLO       CLOUDY    32  20  61 N20       30.15R WCI  20
AUSTIN         CLOUDY    55  48  77 NE8       30.05R
BROWNSVILLE    PTSUNNY   80  69  69 SE14      29.92S
CORPUS CHRISTI CLOUDY    64  60  87 NE8       29.97S
DALLAS FTW     CLOUDY    51  39  63 N8        30.10R
DEL RIO        CLOUDY    52  47  83 CALM      30.02R
EL PASO        CLOUDY    57  32  38 SW7       29.99S
HOUSTON INT    CLOUDY    57  52  83 N7        30.05S
LUBBOCK        CLOUDY    39  32  76 NE15      30.07R WCI  31
SAN ANGELO     MOSUNNY   53  43  68 CALM      30.04R
SAN ANTONIO    CLOUDY    56  49  77 E5        30.02R
WACO           CLOUDY    54  46  74 N8        30.07R
WICHITA FALLS  NOT AVBL
$$
...OTHER LOCATIONS IN NEW MEXICO...

CITY           SKY/WX    TMP DP  RH WIND       PRES   REMARKS
ALAMAGORDO     NOT AVBL
ALBUQUERQUE    PTSUNNY   44  20  38 N13       30.05R WCI  38
CANNON AFB     NOT AVBL
CLOVIS         CLOUDY    39  12  33 NE23      30.07R WCI  29
HOLLOMAN AFB   NOT AVBL
ROSWELL        CLOUDY    52  34  50 S12       29.99R
RUIDOSO        CLOUDY    46  18  31 NW8G21    30.04R
SANTA FE       SUNNY     42  15  33 W15G21    30.02R WCI  34
TRUTH OR CONSE PTSUNNY   58  22  24 E8        29.97R
TUCUMCARI      SUNNY     40  13  33 NE20      30.09R WCI  30
$$

  • National Weather Service
  • Southern Region Headquarters
  • 819 Taylor Street, Room 10A06
  • Fort Worth, TX 76102
  • Page Author: NWS Fort Worth
  • Web Master: SR-SRH.Webmaster@noaa.gov
  •  
  • Page last modified: 30-Sep-2016 6:36 PM UTC
USA.gov is the U.S. government's official web portal to all federal, state and local government web resources and services.